Satellite: INMARSAT 3-F1
Catalog number: 23839
Epoch time:      103108.71243639
Element set:     917 
Inclination:        0.0855 deg
RA of node:        37.4442 deg
Eccentricity:    0.0004481
Arg of perigee:   351.1103 deg
Mean anomaly:     138.2839 deg
Mean motion:    1.00275745 rev/day
Decay rate:    9.0000E-008 rev/day^2
Epoch rev:            2580
Checksum:              273

Satellite: ASTRA 1F
Catalog number: 23842
Epoch time:      103108.00000000
Element set:     567 
Inclination:        0.0122 deg
RA of node:       319.8851 deg
Eccentricity:    0.0002995
Arg of perigee:    65.1991 deg
Mean anomaly:     199.7635 deg
Mean motion:    1.00273184 rev/day
Decay rate:    1.1399E-006 rev/day^2
Epoch rev:            2570
Checksum:              264

Satellite: JAS 2
Catalog number: 24278
Epoch time:      103109.44708904
Element set:     575 
Inclination:       98.5457 deg
RA of node:       252.5606 deg
Eccentricity:    0.0351506
Arg of perigee:    61.3064 deg
Mean anomaly:     302.2929 deg
Mean motion:   13.52879363 rev/day
Decay rate:    2.9000E-007 rev/day^2
Epoch rev:           32940
Checksum:              312

Satellite: UNAMSAT
Catalog number: 24305
Epoch time:      103110.24520077
Element set:     679 
Inclination:       82.9345 deg
RA of node:       217.9099 deg
Eccentricity:    0.0031963
Arg of perigee:    35.1703 deg
Mean anomaly:     325.1542 deg
Mean motion:   13.73459472 rev/day
Decay rate:    2.0499E-006 rev/day^2
Epoch rev:           33181
Checksum:              298

Satellite: INMARSAT 3-F2
Catalog number: 24307
Epoch time:      103106.97477878
Element set:     112 
Inclination:        0.0893 deg
RA of node:        22.8820 deg
Eccentricity:    0.0005436
Arg of perigee:   345.2404 deg
Mean anomaly:     172.0333 deg
Mean motion:    1.00272284 rev/day
Decay rate:   -1.2699E-006 rev/day^2
Epoch rev:            2419
Checksum:              279

Satellite: HOT BIRD 2
Catalog number: 24665
Epoch time:      103104.95823611
Element set:     349 
Inclination:        0.0337 deg
RA of node:       189.6656 deg
Eccentricity:    0.0009067
Arg of perigee:   269.9979 deg
Mean anomaly:     100.9111 deg
Mean motion:    1.00271489 rev/day
Decay rate:    9.9999E-009 rev/day^2
Epoch rev:            2381
Checksum:              334

Satellite: INMARSAT 3-F3
Catalog number: 24674
Epoch time:      103110.46652951
Element set:     31 
Inclination:        0.0917 deg
RA of node:        55.0306 deg
Eccentricity:    0.0003521
Arg of perigee:   318.5896 deg
Mean anomaly:     180.5451 deg
Mean motion:    1.00272730 rev/day
Decay rate:    3.0999E-007 rev/day^2
Epoch rev:            2319
Checksum:              271

Satellite: GOES 10
Catalog number: 24786
Epoch time:      103109.31973957
Element set:     646 
Inclination:        0.2906 deg
RA of node:       102.6373 deg
Eccentricity:    0.0004260
Arg of perigee:   317.5342 deg
Mean anomaly:     126.7837 deg
Mean motion:    1.00281963 rev/day
Decay rate:    8.1000E-007 rev/day^2
Epoch rev:            2193
Checksum:              281

Satellite: INMARSAT 3-F4
Catalog number: 24819
Epoch time:      103109.94626291
Element set:     911 
Inclination:        0.0728 deg
RA of node:        56.2227 deg
Eccentricity:    0.0002727
Arg of perigee:   326.0753 deg
Mean anomaly:     111.9722 deg
Mean motion:    1.00269505 rev/day
Decay rate:   -2.9400E-006 rev/day^2
Epoch rev:            2161
Checksum:              272

Satellite: FENGYUN 2A
Catalog number: 24834
Epoch time:      103110.59201447
Element set:     2 
Inclination:        2.7223 deg
RA of node:        87.7488 deg
Eccentricity:    0.0000485
Arg of perigee:   287.9782 deg
Mean anomaly:     132.1150 deg
Mean motion:    1.00268849 rev/day
Decay rate:   -2.0699E-006 rev/day^2
Epoch rev:            2145
Checksum:              286

Satellite: HOT BIRD 3
Catalog number: 24931
Epoch time:      103099.84635997
Element set:     430 
Inclination:        0.0632 deg
RA of node:        21.1145 deg
Eccentricity:    0.0006301
Arg of perigee:   353.2368 deg
Mean anomaly:     140.9901 deg
Mean motion:    1.00272510 rev/day
Decay rate:    8.8000E-007 rev/day^2
Epoch rev:            2058
Checksum:              255

Satellite: METEOSAT 7
Catalog number: 24932
Epoch time:      103111.03143520
Element set:     275 
Inclination:        0.3560 deg
RA of node:        78.0836 deg
Eccentricity:    0.0000616
Arg of perigee:   272.7334 deg
Mean anomaly:     228.6957 deg
Mean motion:    1.00270453 rev/day
Decay rate:   -1.8999E-007 rev/day^2
Epoch rev:            2063
Checksum:              279

Satellite: ASTRA 1G
Catalog number: 25071
Epoch time:      103108.00000000
Element set:     399 
Inclination:        0.0122 deg
RA of node:       319.8851 deg
Eccentricity:    0.0002995
Arg of perigee:    65.1991 deg
Mean anomaly:     199.8263 deg
Mean motion:    1.00273184 rev/day
Decay rate:    1.1399E-006 rev/day^2
Epoch rev:            1972
Checksum:              266

Satellite: INMARSAT 3-F5
Catalog number: 25153
Epoch time:      103107.00268301
Element set:     872 
Inclination:        0.4579 deg
RA of node:         3.8033 deg
Eccentricity:    0.0003168
Arg of perigee:    24.3611 deg
Mean anomaly:     202.4875 deg
Mean motion:    1.00269769 rev/day
Decay rate:    1.3500E-006 rev/day^2
Epoch rev:            1907
Checksum:              259

Satellite: HOT BIRD 4
Catalog number: 25237
Epoch time:      103099.84635997
Element set:     334 
Inclination:        0.0316 deg
RA of node:       347.7932 deg
Eccentricity:    0.0006645
Arg of perigee:    69.4486 deg
Mean anomaly:      98.0254 deg
Mean motion:    1.00270260 rev/day
Decay rate:    8.7000E-007 rev/day^2
Epoch rev:            1904
Checksum:              300

Satellite: NOAA 15
Catalog number: 25338
Epoch time:      103110.57689885
Element set:     86 
Inclination:       98.5472 deg
RA of node:       131.0682 deg
Eccentricity:    0.0011160
Arg of perigee:   135.1865 deg
Mean anomaly:     225.0217 deg
Mean motion:   14.24273648 rev/day
Decay rate:    1.4099E-006 rev/day^2
Epoch rev:           25648
Checksum:              318

Satellite: RESURS O1-N4
Catalog number: 25394
Epoch time:      103110.56000168
Element set:     499 
Inclination:       98.6205 deg
RA of node:       187.3297 deg
Eccentricity:    0.0000656
Arg of perigee:   329.1901 deg
Mean anomaly:      30.9240 deg
Mean motion:   14.23900198 rev/day
Decay rate:    6.6000E-007 rev/day^2
Epoch rev:           24821
Checksum:              292

Satellite: TMSAT
Catalog number: 25396
Epoch time:      103110.89731175
Element set:     841 
Inclination:       98.6171 deg
RA of node:       186.7689 deg
Eccentricity:    0.0001621
Arg of perigee:   341.0854 deg
Mean anomaly:      19.0266 deg
Mean motion:   14.23530196 rev/day
Decay rate:   -4.3000E-007 rev/day^2
Epoch rev:           24825
Checksum:              299

Satellite: TECHSAT 1B
Catalog number: 25397
Epoch time:      103106.93510874
Element set:     166 
Inclination:       98.6138 deg
RA of node:       181.6945 deg
Eccentricity:    0.0001434
Arg of perigee:    22.9855 deg
Mean anomaly:     337.1386 deg
Mean motion:   14.22973451 rev/day
Decay rate:    3.6000E-007 rev/day^2
Epoch rev:           24765
Checksum:              317

Satellite: ASTRA 2A
Catalog number: 25462
Epoch time:      103108.00000000
Element set:     541 
Inclination:        0.0385 deg
RA of node:       308.7109 deg
Eccentricity:    0.0004824
Arg of perigee:   280.8620 deg
Mean anomaly:       4.3097 deg
Mean motion:    1.00272094 rev/day
Decay rate:    1.4400E-006 rev/day^2
Epoch rev:            1702
Checksum:              213

Satellite: EUTELSAT W2
Catalog number: 25491
Epoch time:      103105.84269355
Element set:     598 
Inclination:        0.0466 deg
RA of node:       135.2279 deg
Eccentricity:    0.0068238
Arg of perigee:   294.0685 deg
Mean anomaly:      93.0438 deg
Mean motion:    1.00275633 rev/day
Decay rate:    9.9999E-009 rev/day^2
Epoch rev:            1661
Checksum:              332

Satellite: HOT BIRD 5
Catalog number: 25495
Epoch time:      103099.85365163
Element set:     508 
Inclination:        0.0280 deg
RA of node:        82.8420 deg
Eccentricity:    0.0010247
Arg of perigee:   215.0657 deg
Mean anomaly:     232.9622 deg
Mean motion:    1.00274308 rev/day
Decay rate:    1.4600E-006 rev/day^2
Epoch rev:            1652
Checksum:              265

Satellite: SEDSAT 1
Catalog number: 25509
Epoch time:      103111.19554192
Element set:     828 
Inclination:       31.4270 deg
RA of node:       165.1309 deg
Eccentricity:    0.0357143
Arg of perigee:   121.0395 deg
Mean anomaly:     242.5798 deg
Mean motion:   14.27485771 rev/day
Decay rate:    2.7399E-006 rev/day^2
Epoch rev:           23412
Checksum:              306

Satellite: PAN SAT
Catalog number: 25520
Epoch time:      103108.48932447
Element set:     661 
Inclination:       28.4625 deg
RA of node:       191.3151 deg
Eccentricity:    0.0006052
Arg of perigee:   273.0315 deg
Mean anomaly:      86.9559 deg
Mean motion:   15.14187753 rev/day
Decay rate:    1.7619E-005 rev/day^2
Epoch rev:           24652
Checksum:              303

Satellite: ISS (ZARYA)
Catalog number: 25544
Epoch time:      103111.07217851
Element set:     913 
Inclination:       51.6335 deg
RA of node:       307.1542 deg
Eccentricity:    0.0006588
Arg of perigee:    41.0009 deg
Mean anomaly:     103.2112 deg
Mean motion:   15.58329212 rev/day
Decay rate:    1.5921E-004 rev/day^2
Epoch rev:           25209
Checksum:              253

